LSGGLYNI

Guest
Details From LSGG - Geneva
To LYNI - NIS
Flight Number -
Tags decoded
Created
Modified
Stats Distance 707 nm / 1,309 km
Max Altitude 0 ft / 0 m
Waypoints 5
Social Downloads 0
Likes 0
Share VATSIM

Download

Looking for another format? Having issues loading an existing format? Contact us
Advertisement - Login to hide

Notes

Requested: LSGG MOLUS BLC JST LYNI

Route

LSGG MOLUS BLC JST LYNI

ID Type Via Altitude Latitude Longitude Leg Dist Tot Dist Heading (true) Name
O LSGG APT - 0 ft / 0 m 46.23775˚ 6.10617˚ - 0 nm - Geneva
MOLUS FIX - 0 ft / 0 m 46.44389˚ 6.67944˚ 26 nm 26 nm 62° / 63° -
BLC NDB - 0 ft / 0 m 43.24672˚ 21.36217˚ 652 nm 679 nm 102° / 112° BLACE NDB
JST NDB - 0 ft / 0 m 43.42461˚ 21.63131˚ 15 nm 695 nm 48° / 48° NIS NDB
O LYNI APT - 0 ft / 0 m 43.33675˚ 21.85542˚ 11 nm 706 nm 118° / 118° NIS

Altitude Profile

Advertisement - Login to hide

Weather


0- 5 10 15 20 25 30 35+ Temperature / ° C

Clouds and Precipitation
Forecast for 2018-05-24 12:00 UTC. Updated 5 hours ago

Ground ~20,000 ft ~40,000 ft Winds

LSGG

Details ICAO LSGG (GVA)
Name Geneva
Region Switzerland
Timezone Europe/Zurich (UTC+2.0)
Stats Elevation 1,410 ft / 430 m (AMSL)
Location 46.237755° 6.106173°
Runways 2
Magnetic Variation 1.791° E

METAR

LSGG 241620Z 21007KT 170V270 9999 FEW060 BKN320 25/06 Q1016 NOSIG

Decode

TAF

TAF TAF LSGG 241425Z 2415/2521 20008KT 9999 FEW060 SCT300 TX25/2415Z TN12/2505Z TX27/2515Z BECMG 2418/2421 CAVOK BECMG 2507/2509 9999 FEW030 BECMG 2509/2511 05008KT

Decode

Departure Runways

ID Width Length Bearing (true) Bearing (mag) Surface Threshold Offset Overrun Length
05 180 ft / 55 m 12,796 ft / 3,900 m 45.43° 43.64° Concrete 1,079 ft / 329 m 66 ft / 20 m
05L 98 ft / 30 m 2,701 ft / 823 m 45.44° 43.65° Grass 610 ft / 186 m 0 ft / 0 m
23 180 ft / 55 m 12,796 ft / 3,900 m 225.45° 223.66° Concrete 0 ft / 0 m 66 ft / 20 m
23R 98 ft / 30 m 2,701 ft / 823 m 225.45° 223.66° Grass 997 ft / 304 m 0 ft / 0 m

LYNI

Details ICAO LYNI (INI)
Name NIS
Region Serbia and Montenegro
Timezone Europe/Belgrade (UTC+2.0)
Stats Elevation 648 ft / 198 m (AMSL)
Location 43.336748° 21.855417°
Runways 1
Magnetic Variation 4.813° E

METAR

LYNI 241630Z VRB05KT 9999 SCT033TCU 23/15 Q1014 TEMPO TS SCT033CB

Decode

TAF

TAF LYNI 241100Z 2412/2512 07006KT 9999 SCT040 TX28/2414Z TN10/2503Z TEMPO 2412/2417 VRB17KT 5000 TSRA SCT015 BKN030CB

Decode

Destination Runways

ID Width Length Bearing (true) Bearing (mag) Surface Threshold Offset Overrun Length
11 148 ft / 45 m 8,187 ft / 2,495 m 113.61° 108.80° Asphalt 719 ft / 219 m 0 ft / 0 m
29 148 ft / 45 m 8,187 ft / 2,495 m 293.63° 288.82° Asphalt 985 ft / 300 m 0 ft / 0 m

Popular Alternatives